Location: Kuffner-Sternwarte
(48.2130°N, 16.2960°E)
Time: 22:10:06
(UTC+01:00)

COROT - Pass Details

Date: 14 January 2018
Orbit: 599 x 890 km, 90.0° (Epoch: 19 January)

Event Time Altitude Azimuth Distance (km) Brightness Sun altitude
Rises 18:31:38 0° 217° (SW) 3,185 9.9 -20.2°
Reaches altitude 10° 18:34:39 10° 235° (SW) 2,208 9.3 -20.7°
Maximum altitude 18:38:04 19° 280° (W) 1,628 8.5 -21.2°
Drops below altitude 10° 18:41:22 10° 326° (NW) 2,096 8.6 -21.8°
Sets 18:44:09 0° 344° (NNW) 2,967 9.2 -22.2°
